Location: *
(50.8512°N, 5.6907°E)
Time: 22:59:01
(UTC+00:00)

Cosmos 2369 - Pass Details

Date: 09 April 2020
Orbit: 840 x 855 km, 71.0° (Epoch: 27 May)

Event Time Altitude Azimuth Distance (km) Brightness Sun altitude
Rises 21:05:30 0° 329° (NNW) 3,407 8.3 -22.5°
Reaches altitude 10° 21:07:57 10° 329° (NNW) 2,468 7.2 -22.8°
Maximum altitude 21:13:37 83° 243° (WSW) 854 3.6 -23.3°
Enters shadow 21:14:56 55° 163° (SSE) 1,008 3.7 -23.5°
